Location: Newark
(49.0931°N, 0.8567°W)
Time: 03:15:36
(UTC+00:00)

Envisat - Visible Passes

Search period start: 20 January 2020 00:00
Search period end: 30 January 2020 00:00
Orbit: 764 x 766 km, 98.1° (Epoch: 19 January)

Date Brightness Start Highest point End Pass type
(mag) Time Alt. Az. Time Alt. Az. Time Alt. Az.
20 Jan 5.2 05:58:43 10° NE 06:03:04 28° E 06:07:23 10° SSE visible
20 Jan 3.1 17:17:01 10° SE 17:21:57 54° ENE 17:26:55 10° N visible
20 Jan 5.4 18:57:17 10° SW 19:01:18 23° W 19:05:21 10° NW visible
21 Jan 6.2 05:23:18 10° NE 05:25:51 14° E 05:28:24 10° ESE visible
21 Jan 3.1 07:00:29 10° NNE 07:05:36 89° WNW 07:10:42 10° SSW visible
21 Jan 4.1 18:19:21 10° S 18:24:14 46° W 18:29:10 10° NNW visible
22 Jan 4.3 06:23:51 10° NNE 06:28:44 45° E 06:33:36 10° S visible
22 Jan 3.0 17:42:18 10° SSE 17:47:23 87° ENE 17:52:30 10° NNW visible
22 Jan 6.1 19:24:26 10° WSW 19:27:07 14° W 19:29:48 10° NW visible
23 Jan 5.6 05:47:41 10° NE 05:51:40 23° E 05:55:38 10° SE visible
23 Jan 5.1 18:45:32 10° SSW 18:49:55 28° W 18:54:18 10° NW visible
24 Jan 6.4 05:13:06 10° ENE 05:14:23 11° E 05:15:40 10° E visible
24 Jan 3.3 06:49:12 10° NNE 06:54:18 75° ESE 06:59:23 10° S visible
24 Jan 3.7 18:07:54 10° S 18:12:54 58° W 18:17:56 10° NNW visible
25 Jan 4.7 06:12:40 10° NNE 06:17:23 37° E 06:22:03 10° SSE visible
25 Jan 3.0 17:31:03 10° SSE 17:36:06 72° ENE 17:41:11 10° N visible
25 Jan 5.9 19:12:18 10° SW 19:15:40 18° W 19:19:03 10° NW visible
26 Jan 5.9 05:36:44 10° NE 05:40:15 19° E 05:43:45 10° SE visible
26 Jan 4.7 18:33:54 10° SSW 18:38:31 35° W 18:43:10 10° NNW visible
27 Jan 3.7 06:37:56 10° NNE 06:42:59 61° E 06:48:00 10° S visible
27 Jan 3.3 17:56:31 10° S 18:01:34 71° WSW 18:06:41 10° NNW visible
27 Jan 6.4 19:40:57 10° W 19:41:32 10° W 19:42:08 10° WNW visible
28 Jan 5.1 06:01:32 10° NNE 06:06:00 30° E 06:10:26 10° SSE visible
28 Jan 3.1 17:19:52 10° SSE 17:24:50 58° ENE 17:29:50 10° N visible
28 Jan 5.6 19:00:23 10° SW 19:04:15 22° W 19:08:08 10° NW visible
29 Jan 6.1 05:25:55 10° NE 05:28:48 15° E 05:31:41 10° ESE visible
29 Jan 4.3 18:22:20 10° S 18:27:09 43° W 18:32:01 10° NNW visible
